| time (UTC) | temp F | wind direction | speed MPH | gust MPH | rain 1hr in | rain 24hr in | rain mn in | humidity % | barometer mb |
| 20260506171117 | 58 | 127 | 2.0 | 8.0 | 0.00 | 0.00 | 0.00 | 44 | 1012.8 |
| 20260506170615 | 58 | 241 | 0.0 | 7.0 | 0.00 | 0.00 | 0.00 | 44 | 1013.1 |
| 20260506170111 | 56 | 32 | 1.0 | 4.0 | 0.00 | 0.00 | 0.00 | 46 | 1013.0 |
| 20260506165609 | 56 | 47 | 3.0 | 7.0 | 0.00 | 0.00 | 0.00 | 44 | 1013.2 |
| 20260506165105 | 56 | 194 | 1.0 | 5.0 | 0.00 | 0.00 | 0.00 | 47 | 1013.1 |
| 20260506164603 | 55 | 9 | 4.0 | 7.0 | 0.00 | 0.00 | 0.00 | 44 | 1012.8 |
| 20260506164100 | 55 | 0 | 1.0 | 4.0 | 0.00 | 0.00 | 0.00 | 47 | 1012.8 |
| 20260506163555 | 55 | 6 | 3.0 | 5.0 | 0.00 | 0.00 | 0.00 | 44 | 1012.6 |
| 20260506163051 | 55 | 24 | 2.0 | 8.0 | 0.00 | 0.00 | 0.00 | 48 | 1012.8 |
| 20260506162547 | 56 | 237 | 2.0 | 4.0 | 0.00 | 0.00 | 0.00 | 48 | 1012.8 |
| 20260506162039 | 56 | 70 | 2.0 | 7.0 | 0.00 | 0.00 | 0.00 | 49 | 1012.8 |
| 20260506161537 | 56 | 204 | 3.0 | 5.0 | 0.00 | 0.00 | 0.00 | 47 | 1012.8 |
| 20260506161033 | 56 | 279 | 0.0 | 6.0 | 0.00 | 0.00 | 0.00 | 46 | 1012.5 |
| 20260506160531 | 56 | 69 | 1.0 | 4.0 | 0.00 | 0.00 | 0.00 | 46 | 1012.8 |
| 20260506160028 | 57 | 223 | 3.0 | 6.0 | 0.00 | 0.00 | 0.00 | 45 | 1012.8 |
| 20260506155526 | 56 | 251 | 0.0 | 3.0 | 0.00 | 0.00 | 0.00 | 49 | 1012.7 |
| 20260506153658 | 55 | 81 | 0.0 | 2.0 | 0.00 | 0.00 | 0.00 | 46 | 1012.8 |
| 20260506153155 | 55 | 0 | 2.0 | 5.0 | 0.00 | 0.00 | 0.00 | 48 | 1012.7 |
| 20260506152652 | 55 | 180 | 1.0 | 4.0 | 0.00 | 0.00 | 0.00 | 52 | 1012.8 |
| 20260506152149 | 55 | 270 | 1.0 | 3.0 | 0.00 | 0.00 | 0.00 | 54 | 1012.8 |
| 20260506151648 | 55 | 14 | 0.0 | 4.0 | 0.00 | 0.00 | 0.00 | 55 | 1012.9 |
| 20260506151144 | 55 | 117 | 0.0 | 3.0 | 0.00 | 0.00 | 0.00 | 54 | 1012.8 |
| 20260506150641 | 55 | 196 | 6.0 | 6.0 | 0.00 | 0.00 | 0.00 | 55 | 1012.9 |
| 20260506150138 | 55 | 77 | 2.0 | 3.0 | 0.00 | 0.00 | 0.00 | 53 | 1012.9 |
| 20260506145635 | 54 | 98 | 0.0 | 2.0 | 0.00 | 0.00 | 0.00 | 57 | 1012.7 |
| 20260506145132 | 54 | 203 | 0.0 | 1.0 | 0.00 | 0.00 | 0.00 | 54 | 1012.9 |
| 20260506144630 | 53 | 106 | 0.0 | 3.0 | 0.00 | 0.00 | 0.00 | 54 | 1012.7 |
| 20260506144126 | 53 | 74 | 0.0 | 4.0 | 0.00 | 0.00 | 0.00 | 59 | 1012.7 |
| 20260506143624 | 53 | 186 | 0.0 | 4.0 | 0.00 | 0.00 | 0.00 | 57 | 1012.8 |
| 20260506143121 | 53 | 192 | 0.0 | 2.0 | 0.00 | 0.00 | 0.00 | 56 | 1013.0 |
| 20260506142620 | 53 | 270 | 0.0 | 2.0 | 0.00 | 0.00 | 0.00 | 58 | 1012.9 |
| 20260506142118 | 52 | 340 | 0.0 | 2.0 | 0.00 | 0.00 | 0.00 | 59 | 1012.8 |
| 20260506141615 | 52 | 0 | 0.0 | 2.0 | 0.00 | 0.00 | 0.00 | 62 | 1012.9 |
| 20260506141113 | 51 | 106 | 1.0 | 3.0 | 0.00 | 0.00 | 0.00 | 61 | 1013.0 |
| 20260506140610 | 51 | 81 | 0.0 | 3.0 | 0.00 | 0.00 | 0.00 | 66 | 1013.0 |
| 20260506140107 | 51 | 198 | 1.0 | 2.0 | 0.00 | 0.00 | 0.00 | 65 | 1012.9 |
| 20260506135604 | 51 | 83 | 1.0 | 4.0 | 0.00 | 0.00 | 0.00 | 68 | 1012.9 |
| 20260506135100 | 50 | 195 | 3.0 | 4.0 | 0.00 | 0.00 | 0.00 | 65 | 1012.8 |
| 20260506134557 | 51 | 197 | 3.0 | 5.0 | 0.00 | 0.00 | 0.00 | 66 | 1012.8 |
| 20260506134053 | 51 | 195 | 3.0 | 3.0 | 0.00 | 0.00 | 0.00 | 67 | 1012.6 |
| 20260506133550 | 50 | 201 | 0.0 | 3.0 | 0.00 | 0.00 | 0.00 | 68 | 1012.5 |
| 20260506133047 | 50 | 0 | 0.0 | 3.0 | 0.00 | 0.00 | 0.00 | 68 | 1012.6 |
| 20260506132544 | 49 | 253 | 0.0 | 2.0 | 0.00 | 0.00 | 0.00 | 68 | 1012.5 |
| 20260506132041 | 48 | 216 | 2.0 | 2.0 | 0.00 | 0.00 | 0.00 | 70 | 1012.1 |
| 20260506131538 | 49 | 74 | 0.0 | 0.0 | 0.00 | 0.00 | 0.00 | 70 | 1012.2 |
| 20260506131035 | 48 | 270 | 0.0 | 0.0 | 0.00 | 0.00 | 0.00 | 69 | 1012.1 |
| 20260506130532 | 48 | 270 | 0.0 | 0.0 | 0.00 | 0.00 | 0.00 | 72 | 1011.9 |
| 20260506130029 | 48 | 270 | 0.0 | 1.0 | 0.00 | 0.00 | 0.00 | 69 | 1011.8 |
| 20260506125527 | 48 | 294 | 0.0 | 2.0 | 0.00 | 0.00 | 0.00 | 69 | 1011.9 |
| 20260506125025 | 48 | 246 | 0.0 | 1.0 | 0.00 | 0.00 | 0.00 | 70 | 1011.8 |
| 20260506124523 | 47 | 325 | 1.0 | 1.0 | 0.00 | 0.00 | 0.00 | 71 | 1012.3 |
| 20260506124020 | 47 | 306 | 0.0 | 1.0 | 0.00 | 0.00 | 0.00 | 72 | 1011.9 |
| 20260506123518 | 47 | 345 | 0.0 | 0.0 | 0.00 | 0.00 | 0.00 | 72 | 1011.6 |
| 20260506123016 | 46 | 262 | 0.0 | 1.0 | 0.00 | 0.00 | 0.00 | 72 | 1011.6 |
| 20260506122512 | 46 | 90 | 0.0 | 0.0 | 0.00 | 0.00 | 0.00 | 72 | 1011.7 |
| 20260506122011 | 46 | 90 | 0.0 | 1.0 | 0.00 | 0.00 | 0.00 | 71 | 1011.8 |
| 20260506121508 | 46 | 74 | 0.0 | 1.0 | 0.00 | 0.00 | 0.00 | 72 | 1011.5 |
| 20260506121004 | 46 | 82 | 0.0 | 0.0 | 0.00 | 0.00 | 0.00 | 72 | 1011.4 |
| 20260506120502 | 45 | 82 | 0.0 | 2.0 | 0.00 | 0.00 | 0.00 | 72 | 1011.4 |
| 20260506115959 | 45 | 74 | 0.0 | 0.0 | 0.00 | 0.00 | 0.00 | 77 | 1011.4 |
| 20260506115457 | 43 | 106 | 0.0 | 0.0 | 0.00 | 0.00 | 0.00 | 78 | 1011.3 |
| 20260506114955 | 42 | 57 | 0.0 | 1.0 | 0.00 | 0.00 | 0.00 | 79 | 1011.3 |
| 20260506114452 | 42 | 66 | 0.0 | 1.0 | 0.00 | 0.00 | 0.00 | 80 | 1011.1 |
| 20260506113950 | 41 | 77 | 0.0 | 0.0 | 0.00 | 0.00 | 0.00 | 81 | 1011.0 |
| 20260506113448 | 41 | 77 | 0.0 | 0.0 | 0.00 | 0.00 | 0.00 | 81 | 1011.1 |
| 20260506112944 | 41 | 77 | 0.0 | 0.0 | 0.00 | 0.00 | 0.00 | 81 | 1011.1 |
| 20260506112442 | 41 | 74 | 0.0 | 0.0 | 0.00 | 0.00 | 0.00 | 81 | 1010.8 |
| 20260506111939 | 41 | 57 | 1.0 | 1.0 | 0.00 | 0.00 | 0.00 | 81 | 1010.9 |
| 20260506111437 | 40 | 180 | 0.0 | 0.0 | 0.00 | 0.00 | 0.00 | 82 | 1010.7 |
| 20260506110934 | 40 | 180 | 0.0 | 1.0 | 0.00 | 0.00 | 0.00 | 83 | 1010.5 |
| 20260506110432 | 40 | 291 | 0.0 | 1.0 | 0.00 | 0.00 | 0.00 | 83 | 1010.6 |
| 20260506105928 | 39 | 83 | 0.0 | 0.0 | 0.00 | 0.00 | 0.00 | 83 | 1010.6 |
| 20260506105424 | 39 | 66 | 0.0 | 0.0 | 0.00 | 0.00 | 0.00 | 84 | 1010.6 |
| 20260506104922 | 39 | 66 | 0.0 | 0.0 | 0.00 | 0.00 | 0.00 | 83 | 1010.5 |
| 20260506104420 | 39 | 66 | 0.0 | 0.0 | 0.00 | 0.00 | 0.00 | 83 | 1010.2 |
| 20260506103917 | 39 | 66 | 0.0 | 0.0 | 0.00 | 0.00 | 0.00 | 82 | 1010.3 |
| 20260506103415 | 39 | 66 | 0.0 | 0.0 | 0.00 | 0.00 | 0.00 | 82 | 1010.4 |
| 20260506102911 | 39 | 66 | 0.0 | 0.0 | 0.00 | 0.00 | 0.00 | 81 | 1010.4 |
| 20260506102410 | 40 | 106 | 0.0 | 0.0 | 0.00 | 0.00 | 0.00 | 80 | 1010.4 |
| 20260506101907 | 40 | 106 | 0.0 | 0.0 | 0.00 | 0.00 | 0.00 | 79 | 1010.1 |
| 20260506101403 | 41 | 106 | 0.0 | 0.0 | 0.00 | 0.00 | 0.00 | 78 | 1010.0 |
| 20260506100900 | 41 | 106 | 0.0 | 0.0 | 0.00 | 0.00 | 0.00 | 76 | 1009.9 |
| 20260506100358 | 42 | 90 | 0.0 | 2.0 | 0.00 | 0.00 | 0.00 | 76 | 1010.0 |
| 20260506095856 | 41 | 90 | 0.0 | 3.0 | 0.00 | 0.00 | 0.00 | 77 | 1010.1 |
| 20260506095354 | 41 | 29 | 0.0 | 1.0 | 0.00 | 0.00 | 0.00 | 76 | 1010.1 |
| 20260506094850 | 42 | 82 | 0.0 | 2.0 | 0.00 | 0.00 | 0.00 | 76 | 1009.9 |
| 20260506094349 | 42 | 105 | 0.0 | 1.0 | 0.00 | 0.00 | 0.00 | 74 | 1009.8 |
| 20260506093847 | 43 | 51 | 2.0 | 3.0 | 0.00 | 0.00 | 0.00 | 73 | 1010.1 |
| 20260506093344 | 43 | 14 | 0.0 | 1.0 | 0.00 | 0.00 | 0.00 | 72 | 1009.9 |
| 20260506092841 | 43 | 90 | 2.0 | 2.0 | 0.00 | 0.00 | 0.00 | 72 | 1010.1 |
| 20260506092339 | 42 | 82 | 0.0 | 1.0 | 0.00 | 0.00 | 0.00 | 73 | 1010.1 |
| 20260506091836 | 43 | 98 | 0.0 | 0.0 | 0.00 | 0.00 | 0.00 | 72 | 1009.9 |
| 20260506091334 | 42 | 98 | 0.0 | 0.0 | 0.00 | 0.00 | 0.00 | 71 | 1010.1 |
| 20260506090831 | 43 | 98 | 0.0 | 1.0 | 0.00 | 0.00 | 0.00 | 71 | 1009.8 |
| 20260506090328 | 43 | 97 | 1.0 | 1.0 | 0.00 | 0.00 | 0.00 | 71 | 1009.8 |
| 20260506085825 | 43 | 98 | 0.0 | 0.0 | 0.00 | 0.00 | 0.00 | 71 | 1009.8 |
| 20260506085321 | 43 | 78 | 1.0 | 2.0 | 0.00 | 0.00 | 0.00 | 71 | 1009.7 |
| 20260506084818 | 43 | 82 | 0.0 | 2.0 | 0.00 | 0.00 | 0.00 | 71 | 1009.9 |
| 20260506084314 | 43 | 84 | 0.0 | 2.0 | 0.00 | 0.00 | 0.00 | 71 | 1009.5 |
| 20260506083811 | 43 | 90 | 0.0 | 1.0 | 0.00 | 0.00 | 0.00 | 72 | 1009.5 |
| 20260506083309 | 43 | 66 | 1.0 | 2.0 | 0.00 | 0.00 | 0.00 | 70 | 1009.5 |
| 20260506082806 | 44 | 105 | 0.0 | 2.0 | 0.00 | 0.00 | 0.00 | 71 | 1009.5 |
| 20260506082304 | 44 | 96 | 1.0 | 2.0 | 0.00 | 0.00 | 0.00 | 72 | 1009.5 |
| 20260506081759 | 44 | 90 | 1.0 | 1.0 | 0.00 | 0.00 | 0.00 | 71 | 1009.6 |
| 20260506081257 | 44 | 106 | 0.0 | 2.0 | 0.00 | 0.00 | 0.00 | 70 | 1009.4 |
| 20260506080754 | 44 | 82 | 0.0 | 2.0 | 0.00 | 0.00 | 0.00 | 71 | 1009.5 |
| 20260506080250 | 44 | 74 | 0.0 | 2.0 | 0.00 | 0.00 | 0.00 | 72 | 1009.3 |
| 20260506073234 | 46 | 14 | 0.0 | 2.0 | 0.00 | 0.00 | 0.00 | 69 | 1009.4 |
| 20260506072731 | 46 | 84 | 0.0 | 2.0 | 0.00 | 0.00 | 0.00 | 69 | 1009.1 |
| 20260506072229 | 46 | 75 | 0.0 | 3.0 | 0.00 | 0.00 | 0.00 | 69 | 1009.1 |
| 20260506071726 | 46 | 345 | 0.0 | 2.0 | 0.00 | 0.00 | 0.00 | 70 | 1009.3 |
| 20260506071224 | 46 | 55 | 0.0 | 3.0 | 0.00 | 0.00 | 0.00 | 71 | 1008.8 |
| 20260506070721 | 46 | 60 | 0.0 | 2.0 | 0.00 | 0.00 | 0.00 | 70 | 1008.8 |
| 20260506070218 | 46 | 26 | 2.0 | 3.0 | 0.00 | 0.00 | 0.00 | 71 | 1008.5 |
| 20260506062154 | 46 | 7 | 0.0 | 1.0 | 0.00 | 0.00 | 0.00 | 74 | 1008.9 |
| 20260506061651 | 46 | 82 | 0.0 | 1.0 | 0.00 | 0.00 | 0.00 | 74 | 1008.6 |
| 20260506061148 | 46 | 157 | 0.0 | 2.0 | 0.00 | 0.00 | 0.00 | 74 | 1008.6 |
| 20260506060647 | 46 | 74 | 0.0 | 0.0 | 0.00 | 0.00 | 0.00 | 75 | 1008.9 |
| 20260506060143 | 46 | 353 | 1.0 | 1.0 | 0.00 | 0.00 | 0.00 | 75 | 1009.0 |
| 20260506051115 | 48 | 66 | 1.0 | 3.0 | 0.00 | 0.00 | 0.00 | 72 | 1008.6 |
| 20260506050614 | 48 | 7 | 0.0 | 1.0 | 0.00 | 0.00 | 0.00 | 72 | 1008.7 |
| 20260506050111 | 49 | 83 | 0.0 | 2.0 | 0.00 | 0.00 | 0.00 | 71 | 1008.3 |
| 20260506045104 | 49 | 99 | 0.0 | 1.0 | 0.00 | 0.04 | 0.04 | 70 | 1008.5 |
| 20260506044602 | 49 | 331 | 2.0 | 2.0 | 0.00 | 0.04 | 0.04 | 69 | 1008.2 |
| 20260506044058 | 50 | 254 | 0.0 | 2.0 | 0.00 | 0.04 | 0.04 | 69 | 1008.2 |
| 20260506043555 | 50 | 7 | 0.0 | 2.0 | 0.00 | 0.04 | 0.04 | 67 | 1008.1 |
| 20260506043054 | 50 | 15 | 0.0 | 0.0 | 0.00 | 0.04 | 0.04 | 67 | 1008.7 |
| 20260506042553 | 50 | 7 | 0.0 | 1.0 | 0.00 | 0.04 | 0.04 | 66 | 1008.4 |
| 20260506042050 | 50 | 279 | 0.0 | 0.0 | 0.00 | 0.04 | 0.04 | 66 | 1008.5 |
| 20260506041549 | 50 | 12 | 1.0 | 2.0 | 0.00 | 0.04 | 0.04 | 66 | 1008.7 |
| 20260506041045 | 50 | 18 | 0.0 | 0.0 | 0.00 | 0.04 | 0.04 | 64 | 1008.6 |
| 20260506040543 | 50 | 254 | 0.0 | 0.0 | 0.00 | 0.04 | 0.04 | 63 | 1008.5 |
| 20260506040038 | 51 | 337 | 0.0 | 1.0 | 0.00 | 0.04 | 0.04 | 63 | 1008.8 |
| 20260506035536 | 51 | 352 | 0.0 | 2.0 | 0.00 | 0.04 | 0.04 | 61 | 1008.8 |
| 20260506035032 | 50 | 331 | 0.0 | 1.0 | 0.00 | 0.04 | 0.04 | 62 | 1008.9 |
| 20260506034530 | 50 | 346 | 0.0 | 2.0 | 0.00 | 0.04 | 0.04 | 62 | 1008.6 |
| 20260506034026 | 50 | 83 | 0.0 | 2.0 | 0.00 | 0.04 | 0.04 | 64 | 1008.8 |
| 20260506033524 | 50 | 228 | 0.0 | 2.0 | 0.00 | 0.04 | 0.04 | 64 | 1008.7 |
| 20260506033021 | 50 | 90 | 0.0 | 1.0 | 0.00 | 0.04 | 0.04 | 64 | 1008.4 |
| 20260506032518 | 50 | 99 | 0.0 | 0.0 | 0.00 | 0.04 | 0.04 | 65 | 1008.6 |
| 20260506032015 | 50 | 106 | 0.0 | 0.0 | 0.00 | 0.04 | 0.04 | 65 | 1008.6 |
| 20260506031513 | 50 | 106 | 0.0 | 2.0 | 0.00 | 0.04 | 0.04 | 65 | 1008.5 |
| 20260506031009 | 50 | 331 | 0.0 | 2.0 | 0.00 | 0.04 | 0.04 | 66 | 1008.6 |
| 20260506030508 | 50 | 254 | 0.0 | 0.0 | 0.00 | 0.04 | 0.04 | 66 | 1008.4 |
| 20260506030005 | 50 | 15 | 0.0 | 0.0 | 0.00 | 0.04 | 0.04 | 67 | 1008.5 |
| 20260506025501 | 50 | 188 | 0.0 | 0.0 | 0.00 | 0.04 | 0.04 | 67 | 1008.5 |
| 20260506024957 | 50 | 8 | 0.0 | 0.0 | 0.00 | 0.04 | 0.04 | 66 | 1008.2 |
| 20260506024454 | 50 | 8 | 0.0 | 0.0 | 0.00 | 0.04 | 0.04 | 65 | 1008.2 |
| 20260506023950 | 50 | 8 | 0.0 | 0.0 | 0.00 | 0.04 | 0.04 | 65 | 1007.8 |
| 20260506023447 | 51 | 337 | 0.0 | 0.0 | 0.00 | 0.04 | 0.04 | 63 | 1008.0 |
| 20260506022944 | 51 | 337 | 0.0 | 0.0 | 0.00 | 0.04 | 0.04 | 64 | 1008.0 |
| 20260506022442 | 50 | 15 | 0.0 | 0.0 | 0.00 | 0.04 | 0.04 | 64 | 1008.0 |
| 20260506021939 | 51 | 15 | 0.0 | 0.0 | 0.00 | 0.04 | 0.04 | 64 | 1008.3 |
| 20260506021436 | 51 | 15 | 0.0 | 0.0 | 0.00 | 0.04 | 0.04 | 63 | 1008.1 |
| 20260506020933 | 51 | 15 | 0.0 | 0.0 | 0.00 | 0.04 | 0.04 | 63 | 1008.1 |
| 20260506020431 | 51 | 263 | 1.0 | 1.0 | 0.00 | 0.04 | 0.04 | 62 | 1007.9 |
| 20260506015928 | 51 | 352 | 0.0 | 2.0 | 0.00 | 0.04 | 0.04 | 61 | 1007.7 |
| 20260506015426 | 51 | 0 | 0.0 | 1.0 | 0.00 | 0.04 | 0.04 | 62 | 1007.6 |
| 20260506014922 | 51 | 75 | 0.0 | 0.0 | 0.00 | 0.04 | 0.04 | 63 | 1007.6 |
| 20260506014419 | 51 | 262 | 0.0 | 1.0 | 0.00 | 0.04 | 0.04 | 63 | 1007.7 |
| 20260506013916 | 51 | 99 | 0.0 | 0.0 | 0.00 | 0.04 | 0.04 | 62 | 1007.4 |
| 20260506013414 | 51 | 99 | 0.0 | 0.0 | 0.00 | 0.04 | 0.04 | 61 | 1007.5 |
| 20260506012910 | 51 | 276 | 0.0 | 0.0 | 0.00 | 0.04 | 0.04 | 62 | 1007.3 |
| 20260506012407 | 51 | 276 | 0.0 | 0.0 | 0.00 | 0.04 | 0.04 | 62 | 1007.5 |
| 20260506011904 | 51 | 254 | 0.0 | 0.0 | 0.00 | 0.04 | 0.04 | 62 | 1007.1 |
| 20260506011401 | 51 | 254 | 0.0 | 0.0 | 0.00 | 0.04 | 0.04 | 61 | 1007.2 |
| 20260506010858 | 52 | 254 | 0.0 | 0.0 | 0.00 | 0.04 | 0.04 | 60 | 1007.1 |
| 20260506010356 | 52 | 254 | 0.0 | 1.0 | 0.00 | 0.04 | 0.04 | 60 | 1007.3 |
| 20260506005852 | 52 | 98 | 0.0 | 2.0 | 0.00 | 0.04 | 0.04 | 58 | 1007.0 |
| 20260506005350 | 52 | 187 | 0.0 | 1.0 | 0.00 | 0.04 | 0.04 | 59 | 1007.1 |
| 20260506004845 | 52 | 14 | 0.0 | 0.0 | 0.00 | 0.04 | 0.04 | 59 | 1007.6 |
| 20260506004343 | 52 | 257 | 1.0 | 1.0 | 0.00 | 0.04 | 0.04 | 59 | 1007.0 |
| 20260506003839 | 52 | 102 | 0.0 | 0.0 | 0.00 | 0.04 | 0.04 | 60 | 1006.8 |
| 20260506003335 | 53 | 259 | 0.0 | 2.0 | 0.00 | 0.04 | 0.04 | 58 | 1006.9 |
| 20260506002832 | 53 | 0 | 0.0 | 3.0 | 0.00 | 0.04 | 0.04 | 55 | 1006.8 |
| 20260506002329 | 53 | 97 | 0.0 | 2.0 | 0.00 | 0.04 | 0.04 | 56 | 1007.0 |
| 20260506001824 | 53 | 265 | 0.0 | 2.0 | 0.00 | 0.04 | 0.04 | 55 | 1007.1 |
| 20260506001321 | 53 | 339 | 0.0 | 3.0 | 0.00 | 0.04 | 0.04 | 53 | 1006.9 |
| 20260506000818 | 53 | 106 | 0.0 | 2.0 | 0.00 | 0.04 | 0.04 | 54 | 1006.8 |
| 20260506000316 | 53 | 234 | 1.0 | 3.0 | 0.00 | 0.04 | 0.04 | 52 | 1006.9 |
| 20260505235812 | 54 | 345 | 0.0 | 2.0 | 0.00 | 0.04 | 0.04 | 52 | 1007.0 |
| 20260505235310 | 54 | 278 | 0.0 | 1.0 | 0.00 | 0.04 | 0.04 | 51 | 1006.7 |
| 20260505234807 | 54 | 277 | 0.0 | 3.0 | 0.00 | 0.04 | 0.04 | 50 | 1006.6 |
| 20260505234305 | 54 | 262 | 4.0 | 4.0 | 0.00 | 0.04 | 0.04 | 49 | 1006.7 |
| 20260505233801 | 54 | 102 | 0.0 | 2.0 | 0.00 | 0.04 | 0.04 | 50 | 1006.8 |
| 20260505233259 | 54 | 99 | 0.0 | 2.0 | 0.00 | 0.04 | 0.04 | 49 | 1007.0 |
| 20260505232756 | 54 | 39 | 0.0 | 3.0 | 0.00 | 0.04 | 0.04 | 48 | 1006.6 |
| 20260505232254 | 54 | 318 | 3.0 | 5.0 | 0.00 | 0.04 | 0.04 | 46 | 1006.9 |
| 20260505231750 | 54 | 297 | 2.0 | 4.0 | 0.00 | 0.04 | 0.04 | 46 | 1007.0 |
| 20260505231249 | 55 | 246 | 0.0 | 3.0 | 0.00 | 0.04 | 0.04 | 48 | 1007.1 |
| 20260505230747 | 55 | 90 | 0.0 | 4.0 | 0.00 | 0.04 | 0.04 | 46 | 1006.9 |
| 20260505230243 | 55 | 354 | 1.0 | 4.0 | 0.00 | 0.04 | 0.04 | 46 | 1007.0 |
| 20260505225740 | 55 | 278 | 1.0 | 5.0 | 0.00 | 0.04 | 0.04 | 45 | 1007.0 |
| 20260505225237 | 55 | 348 | 2.0 | 4.0 | 0.00 | 0.04 | 0.04 | 47 | 1006.7 |
| 20260505224732 | 55 | 311 | 3.0 | 4.0 | 0.00 | 0.04 | 0.04 | 45 | 1007.0 |
| 20260505224230 | 55 | 90 | 1.0 | 3.0 | 0.00 | 0.04 | 0.04 | 46 | 1007.2 |
| 20260505223727 | 55 | 328 | 3.0 | 3.0 | 0.00 | 0.04 | 0.04 | 46 | 1007.1 |
| 20260505223223 | 55 | 53 | 2.0 | 3.0 | 0.00 | 0.04 | 0.04 | 46 | 1007.3 |
| 20260505222719 | 55 | 18 | 0.0 | 6.0 | 0.00 | 0.04 | 0.04 | 46 | 1007.3 |
| 20260505222215 | 55 | 270 | 2.0 | 5.0 | 0.00 | 0.04 | 0.04 | 44 | 1007.4 |
| 20260505221713 | 55 | 73 | 3.0 | 6.0 | 0.00 | 0.04 | 0.04 | 42 | 1007.6 |
| 20260505221209 | 55 | 77 | 2.0 | 4.0 | 0.00 | 0.04 | 0.04 | 44 | 1007.3 |
| 20260505220707 | 55 | 333 | 4.0 | 5.0 | 0.00 | 0.04 | 0.04 | 45 | 1007.2 |
| 20260505220204 | 55 | 67 | 3.0 | 4.0 | 0.00 | 0.04 | 0.04 | 44 | 1007.2 |
| 20260505215702 | 55 | 348 | 2.0 | 5.0 | 0.00 | 0.04 | 0.04 | 45 | 1007.0 |
| 20260505215200 | 55 | 210 | 0.0 | 5.0 | 0.00 | 0.04 | 0.04 | 51 | 1007.3 |
| 20260505214657 | 55 | 345 | 2.0 | 8.0 | 0.00 | 0.04 | 0.04 | 49 | 1007.3 |
| 20260505214154 | 55 | 301 | 2.0 | 4.0 | 0.00 | 0.04 | 0.04 | 48 | 1007.3 |
| 20260505213652 | 55 | 5 | 0.0 | 3.0 | 0.00 | 0.04 | 0.04 | 49 | 1007.3 |
| 20260505213148 | 55 | 90 | 0.0 | 3.0 | 0.00 | 0.04 | 0.04 | 49 | 1007.2 |
| 20260505212644 | 55 | 344 | 0.0 | 5.0 | 0.00 | 0.04 | 0.04 | 47 | 1007.5 |
| 20260505212142 | 55 | 187 | 1.0 | 7.0 | 0.00 | 0.04 | 0.04 | 46 | 1007.6 |
| 20260505211639 | 56 | 315 | 3.0 | 6.0 | 0.00 | 0.04 | 0.04 | 46 | 1007.6 |
| 20260505211136 | 56 | 102 | 0.0 | 4.0 | 0.00 | 0.04 | 0.04 | 46 | 1007.4 |
| 20260505210633 | 55 | 0 | 0.0 | 3.0 | 0.00 | 0.04 | 0.04 | 49 | 1007.7 |
| 20260505210129 | 55 | 332 | 2.0 | 5.0 | 0.00 | 0.04 | 0.04 | 47 | 1007.5 |
| 20260505205627 | 55 | 337 | 3.0 | 6.0 | 0.00 | 0.04 | 0.04 | 46 | 1007.6 |
| 20260505205125 | 55 | 41 | 2.0 | 7.0 | 0.00 | 0.04 | 0.04 | 51 | 1007.6 |
| 20260505204622 | 55 | 218 | 5.0 | 5.0 | 0.00 | 0.04 | 0.04 | 50 | 1007.6 |
| 20260505204119 | 55 | 54 | 0.0 | 7.0 | 0.00 | 0.04 | 0.04 | 51 | 1008.0 |
| 20260505203616 | 55 | 296 | 3.0 | 6.0 | 0.00 | 0.04 | 0.04 | 49 | 1007.8 |
| 20260505203113 | 55 | 240 | 3.0 | 4.0 | 0.00 | 0.04 | 0.04 | 51 | 1007.8 |
| 20260505202609 | 55 | 49 | 2.0 | 4.0 | 0.00 | 0.04 | 0.04 | 50 | 1007.9 |
| 20260505202105 | 55 | 283 | 2.0 | 4.0 | 0.00 | 0.04 | 0.04 | 53 | 1008.0 |
| 20260505201602 | 54 | 4 | 3.0 | 7.0 | 0.00 | 0.04 | 0.04 | 51 | 1008.2 |
| 20260505201100 | 54 | 277 | 3.0 | 5.0 | 0.00 | 0.04 | 0.04 | 52 | 1008.0 |
| 20260505200557 | 54 | 14 | 2.0 | 4.0 | 0.00 | 0.04 | 0.04 | 51 | 1008.0 |
| 20260505200054 | 54 | 97 | 0.0 | 8.0 | 0.00 | 0.04 | 0.04 | 53 | 1008.3 |
| 20260505195550 | 54 | 328 | 3.0 | 7.0 | 0.00 | 0.04 | 0.04 | 51 | 1008.0 |
| 20260505195048 | 55 | 270 | 1.0 | 3.0 | 0.00 | 0.04 | 0.04 | 53 | 1007.9 |
| 20260505194545 | 55 | 310 | 2.0 | 3.0 | 0.00 | 0.04 | 0.04 | 52 | 1007.8 |
| 20260505194040 | 55 | 214 | 2.0 | 3.0 | 0.00 | 0.04 | 0.04 | 51 | 1007.9 |
| 20260505193537 | 55 | 263 | 0.0 | 5.0 | 0.00 | 0.04 | 0.04 | 48 | 1007.8 |
| 20260505193035 | 55 | 270 | 0.0 | 5.0 | 0.00 | 0.04 | 0.04 | 50 | 1007.9 |
| 20260505192533 | 55 | 14 | 1.0 | 3.0 | 0.00 | 0.04 | 0.04 | 52 | 1007.8 |
| 20260505192030 | 55 | 227 | 3.0 | 5.0 | 0.00 | 0.04 | 0.04 | 51 | 1007.9 |
| 20260505191528 | 55 | 41 | 0.0 | 6.0 | 0.00 | 0.04 | 0.04 | 51 | 1007.9 |
| 20260505191026 | 56 | 79 | 0.0 | 4.0 | 0.00 | 0.04 | 0.04 | 53 | 1007.8 |
| 20260505190520 | 55 | 250 | 0.0 | 7.0 | 0.00 | 0.04 | 0.04 | 49 | 1008.0 |
| 20260505190017 | 55 | 70 | 0.0 | 3.0 | 0.00 | 0.04 | 0.04 | 50 | 1007.9 |
| 20260505185514 | 56 | 17 | 2.0 | 3.0 | 0.00 | 0.04 | 0.04 | 50 | 1007.9 |
| 20260505185010 | 56 | 106 | 1.0 | 5.0 | 0.00 | 0.04 | 0.04 | 47 | 1008.0 |
| 20260505184507 | 56 | 29 | 0.0 | 4.0 | 0.00 | 0.04 | 0.04 | 47 | 1007.9 |
| 20260505184003 | 57 | 77 | 0.0 | 4.0 | 0.00 | 0.04 | 0.04 | 53 | 1007.8 |
| 20260505183500 | 56 | 33 | 2.0 | 5.0 | 0.00 | 0.04 | 0.04 | 48 | 1007.9 |
| 20260505182957 | 56 | 70 | 5.0 | 5.0 | 0.00 | 0.04 | 0.04 | 47 | 1008.1 |
| 20260505182454 | 56 | 286 | 1.0 | 5.0 | 0.00 | 0.04 | 0.04 | 46 | 1008.2 |
| 20260505181950 | 56 | 47 | 3.0 | 5.0 | 0.00 | 0.04 | 0.04 | 47 | 1007.6 |
| 20260505181448 | 56 | 337 | 0.0 | 3.0 | 0.00 | 0.04 | 0.04 | 48 | 1008.1 |
| 20260505180945 | 56 | 12 | 2.0 | 4.0 | 0.00 | 0.04 | 0.04 | 49 | 1008.0 |
| 20260505180441 | 56 | 240 | 1.0 | 3.0 | 0.00 | 0.04 | 0.04 | 50 | 1008.0 |
| 20260505175938 | 55 | 297 | 2.0 | 5.0 | 0.00 | 0.04 | 0.04 | 47 | 1007.9 |
| 20260505175434 | 56 | 270 | 2.0 | 8.0 | 0.00 | 0.04 | 0.04 | 50 | 1007.8 |
| 20260505174930 | 56 | 300 | 1.0 | 3.0 | 0.00 | 0.04 | 0.04 | 48 | 1007.9 |
| 20260505174428 | 55 | 291 | 1.0 | 4.0 | 0.00 | 0.04 | 0.04 | 51 | 1007.8 |
| 20260505173924 | 55 | 53 | 2.0 | 5.0 | 0.00 | 0.04 | 0.04 | 56 | 1007.8 |
| 20260505173420 | 55 | 0 | 0.0 | 3.0 | 0.00 | 0.04 | 0.04 | 55 | 1007.8 |
| 20260505172918 | 55 | 90 | 0.0 | 6.0 | 0.00 | 0.04 | 0.04 | 58 | 1007.7 |
| 20260505172416 | 55 | 199 | 4.0 | 6.0 | 0.00 | 0.04 | 0.04 | 57 | 1007.9 |
| 20260505171915 | 55 | 114 | 1.0 | 2.0 | 0.00 | 0.04 | 0.04 | 55 | 1007.8 |
| 20260505171412 | 55 | 97 | 3.0 | 8.0 | 0.00 | 0.04 | 0.04 | 57 | 1007.8 |